Weather History for KOFF - January, 2013

Change the Weather History Date:

Thursday, January 17, 2013

  Actual Average Record
Temperature  
Mean Temperature 28 °F -  
Max Temperature 35 °F 31 °F 51 °F (2015)
Min Temperature 20 °F 14 °F -9 °F (1997)
Degree Days  
Heating Degree Days 38    
Moisture  
Dew Point 27 °F    
Average Humidity 94    
Maximum Humidity 100    
Minimum Humidity 72    
Precipitation  
Precipitation 0.00 in - - ()
Sea Level Pressure  
Sea Level Pressure 30.41 in    
Wind  
Wind Speed 4 mph (West)    
Max Wind Speed 8 mph    
Max Gust Speed -    
Visibility 8 miles    
Events Fog    
Averages and records for this station are not official NWS values.
T = Trace of Precipitation, MM = Missing Value Source: NWS Daily Summary

Daily Weather History Graph

Daily Weather History Graph

Search for Another Location

Airport or City:

Trip Planner

Search our weather history database for the weather conditions in past years. The results will help you decide how hot, cold, wet, or windy it might be!

Date:

Astronomy

Jan. 17, 2013 Rise Set
Actual Time 7:45 AM CST 5:22 PM CST
Civil Twilight 7:15 AM CST 5:52 PM CST
Nautical Twilight 6:41 AM CST 6:26 PM CST
Astronomical Twilight 6:08 AM CST 6:59 PM CST
Moon 10:49 AM CST (1/17) No Moon Set
Length of Visible Light 10h 37m
Length of Day
9h 36m
Waxing Crescent, 38% of the Moon is Illuminated
Jan 17
Waxing Crescent
Jan 18
First Quarter
Jan 26
Full
Feb 3
Last Quarter
Feb 10
New

Hourly Weather History & Observations

Time (CST) Temp. Windchill Dew Point Humidity Pressure Visibility Wind Dir Wind Speed Gust Speed Precip Events Conditions
12:24 AM 33.8 °F 27.7 °F 32.0 °F 93% 30.27 in 10.0 mi North 6.9 mph - N/A   Mostly Cloudy
12:55 AM 32.4 °F 25.3 °F 30.7 °F 94% 30.29 in 10.0 mi NNW 8.1 mph - N/A   Overcast
1:13 AM 32.0 °F 27.5 °F 30.2 °F 93% 30.31 in 10.0 mi NNW 4.6 mph - N/A   Scattered Clouds
1:55 AM 26.2 °F 22.1 °F 26.1 °F 99% 30.33 in 10.0 mi North 3.5 mph - N/A   Clear
2:55 AM 25.3 °F 19.7 °F 25.0 °F 99% 30.35 in 10.0 mi West 4.6 mph - N/A   Clear
3:55 AM 26.6 °F 22.6 °F 26.2 °F 99% 30.36 in 10.0 mi NW 3.5 mph - N/A   Clear
4:55 AM 23.7 °F - 23.0 °F 97% 30.39 in 10.0 mi Calm Calm - N/A   Clear
5:55 AM 24.4 °F 20.1 °F 23.2 °F 95% 30.41 in 10.0 mi West 3.5 mph - N/A   Clear
6:55 AM 20.8 °F - 20.3 °F 98% 30.42 in 10.0 mi Calm Calm - N/A   Mostly Cloudy
7:55 AM 21.2 °F 13.6 °F 21.0 °F 99% 30.44 in 10.0 mi NNE 5.8 mph - N/A   Clear
8:55 AM 26.1 °F - 25.2 °F 96% 30.46 in 10.0 mi Calm Calm - N/A   Clear
9:55 AM 29.5 °F - 23.7 °F 79% 30.49 in 10.0 mi Calm Calm - N/A   Clear
10:55 AM 31.3 °F 27.9 °F 24.1 °F 75% 30.49 in 10.0 mi South 3.5 mph - N/A   Clear
11:55 AM 35.2 °F 30.3 °F 27.1 °F 72% 30.47 in 10.0 mi South 5.8 mph - N/A   Clear
12:55 PM 35.2 °F 30.3 °F 28.8 °F 77% 30.46 in 10.0 mi SW 5.8 mph - N/A   Clear
1:55 PM 34.3 °F 27.7 °F 30.6 °F 86% 30.43 in 10.0 mi WSW 8.1 mph - N/A   Clear
2:02 PM 33.8 °F 27.7 °F 30.2 °F 87% 30.43 in 10.0 mi WSW 6.9 mph - N/A   Partly Cloudy
2:22 PM 33.8 °F 29.6 °F 32.0 °F 93% 30.43 in 10.0 mi Variable 4.6 mph - N/A   Mostly Cloudy
2:32 PM 33.8 °F 30.8 °F 32.0 °F 93% 30.43 in 10.0 mi Variable 3.5 mph - N/A   Mostly Cloudy
2:41 PM 35.6 °F 30.7 °F 32.0 °F 87% 30.43 in 10.0 mi SW 5.8 mph - N/A   Overcast
2:55 PM 34.0 °F 28.0 °F 31.5 °F 90% 30.43 in 10.0 mi WSW 6.9 mph - N/A   Overcast
3:20 PM 33.8 °F 30.8 °F 32.0 °F 93% 30.44 in 10.0 mi West 3.5 mph - N/A   Overcast
3:48 PM 33.8 °F 29.6 °F 32.0 °F 93% 30.43 in 10.0 mi WSW 4.6 mph - N/A   Mostly Cloudy
3:51 PM 33.8 °F 29.6 °F 32.0 °F 93% 30.43 in 10.0 mi WSW 4.6 mph - N/A   Scattered Clouds
3:55 PM 33.4 °F 29.1 °F 31.6 °F 93% 30.43 in 10.0 mi WSW 4.6 mph - N/A   Scattered Clouds
4:55 PM 32.9 °F - 32.0 °F 96% 30.43 in 10.0 mi Calm Calm - N/A   Clear
5:55 PM 27.1 °F 23.2 °F 27.0 °F 99% 30.44 in 10.0 mi WNW 3.5 mph - N/A   Clear
6:40 PM 26.6 °F - 26.6 °F 100% 30.43 in 2.0 mi Calm Calm - N/A   Clear
6:41 PM 26.6 °F - 26.6 °F 100% 30.43 in 1.5 mi Calm Calm - N/A   Clear
6:46 PM 24.8 °F - 24.8 °F 100% 30.43 in 0.8 mi Calm Calm - N/A   Clear
6:51 PM 23.0 °F - 23.0 °F 100% 30.43 in 1.0 mi Calm Calm - N/A   Clear
6:55 PM 23.0 °F - 23.0 °F 100% 30.50 in 7.0 mi Calm Calm - N/A   Clear
7:55 PM 21.2 °F 16.4 °F 21.2 °F 100% 30.41 in 5.0 mi NE 3.5 mph - N/A   Clear
8:55 PM 21.2 °F - 21.2 °F 100% 30.40 in 4.0 mi Calm Calm - N/A   Clear
9:38 PM 23.0 °F - 23.0 °F 100% 30.38 in 2.5 mi Calm Calm - N/A   Clear
9:39 PM 23.0 °F - 23.0 °F 100% 30.38 in 1.5 mi Calm Calm - N/A   Clear
9:41 PM 23.0 °F - 23.0 °F 100% 30.38 in 0.5 mi Calm Calm - N/A Fog Light Freezing Fog
9:43 PM 23.0 °F - 23.0 °F 100% 30.38 in 0.2 mi Calm Calm - N/A Fog Light Freezing Fog
9:46 PM 23.0 °F - 23.0 °F 100% 30.38 in 0.2 mi Calm Calm - N/A Fog Light Freezing Fog
9:55 PM 23.0 °F 18.4 °F 23.0 °F 100% 30.32 in 3.0 mi East 3.5 mph - N/A   Clear
10:55 PM 25.2 °F 20.9 °F 25.0 °F 99% 30.35 in 10.0 mi South 3.5 mph - N/A   Clear
11:55 PM 28.2 °F - 28.2 °F 100% 30.33 in 10.0 mi Calm Calm - N/A   Clear